Regional Weather Roundup
Issued by NWS

Home | Current Version | Previous Version | Text Only | Print | Product List | Glossary Off
Versions: 1 2 3 4 5 6 7 8 9 10 11 12 13 14 15 16 17 18 19 20 21 22 23 24 25 26 27

000
ASUS45 KBOU 172107
RWRCO

WEATHER ROUNDUP FOR COLORADO
NATIONAL WEATHER SERVICE DENVER/BOULDER CO
300 PM MDT THU AUG 17 2017

NOTE: "FAIR" INDICATES FEW OR NO CLOUDS BELOW 12000 FEET WITH NO
SIGNIFICANT WEATHER AND/OR OBSTRUCTIONS TO VISIBILITY.

COZ001>005-013-030-031-172200-
...NORTHWEST COLORADO...

CITY           SKY/WX    TMP DP  RH WIND       PRES   REMARKS
CRAIG          FAIR      83  27  13 SW12G25   30.21F
HAYDEN         FAIR      79  32  18 W14       30.24F
MEEKER         FAIR      82  31  15 CALM      30.23F
RABBIT EARS PA FAIR      61  34  36 W13G25    30.52F
STEAMBOAT SPGS NOT AVBL
WALDEN         FAIR      72  32  23 W14       30.35F
$$

COZ006>008-011-172200-
...WEST CENTRAL VALLEYS...

CITY           SKY/WX    TMP DP  RH WIND       PRES   REMARKS
GRAND JUNCTION FAIR      89  32  13 NW13G23   30.13F
MONTROSE       FAIR      84  34  16 N9        30.20F
EAGLE          FAIR      78  32  18 W8        30.26F
RIFLE          FAIR      82  37  20 N14G23    30.18S
DELTA          NOT AVBL
NUCLA          NOT AVBL
$$

COZ017>023-064>068-172200-
...SOUTHWEST COLORADO...

CITY           SKY/WX    TMP DP  RH WIND       PRES   REMARKS
DURANGO        FAIR      82  27  13 W10G20    30.27F
CORTEZ         FAIR      86  29  12 VRB7      30.22F
PAGOSA SPRINGS NOT AVBL
TELLURIDE      NOT AVBL
WOLF CREEK PAS CLOUDY    52  30  43 S8        30.70S
$$

COZ009-010-012-014-032>034-037-058>063-172200-
...CENTRAL COLORADO...

CITY           SKY/WX    TMP DP  RH WIND       PRES   REMARKS
ASPEN          FAIR      67  40  37 VRB6      30.35R
BUENA VISTA    NOT AVBL
COPPER MTN     PTSUNNY   54  28  37 W21G26    30.63F
BERTHOUD PASS  LGT RAIN  34  32  93 W31G38    30.64F WCI  20
COTTONWOOD PAS FAIR      64  23  20 W13G24    30.47F
GUNNISON       NOT AVBL
KREMMLING      PTSUNNY   73  34  23 W7        30.32F
LEADVILLE      PTSUNNY   62  27  26 NW9G20    30.47S
MONARCH PASS   CLOUDY    54  27  35 W23G32    30.74S
SALIDA         NOT AVBL
SUNLIGHT       FAIR      59  34  38 SW6       30.59S
WILKERSON PASS FAIR      59  30  33 SW8       30.60F
$$

COZ069>075-172200-
...SAN LUIS VALLEY/SANGRE DE CRISTO MOUNTAINS...

CITY           SKY/WX    TMP DP  RH WIND       PRES   REMARKS
ALAMOSA        FAIR      77  32  19 S12       30.31F
DEL NORTE      PTSUNNY   73  35  25 NE9G23    30.35S
LA VETA PASS   NOT AVBL
SAGUACHE       FAIR      75  32  20 SW7       30.33F
$$

COZ035-036-038>040-172200-
...NORTHERN COLORADO FRONT RANGE...

CITY           SKY/WX    TMP DP  RH WIND       PRES   REMARKS
DENVER INTL AP PTSUNNY   83  35  18 N6        30.12S
DMNS CITY PARK   N/A     81  34  18 N15       30.12R
AURORA         PTSUNNY   83  40  21 S3        30.14F
FRONT RANGE AP FAIR      82  36  18 NW3       30.14S
ERIE MUNI ARPT FAIR      83  32  16 NE13      30.15F
BOULDER MUN AP FAIR      82  36  18 W8        30.10F
CENTENNIAL     FAIR      82  40  22 S17G28    30.16S
BROOMFIELD     PTSUNNY   86  36  16 NW8       30.15S
FORT COLLINS   PTSUNNY   79  45  29 S7        30.13R
LONGMONT       NOT AVBL
$$

COZ041-046-047-076>085-087-088-172200-
...PIKES PEAK/PALMER DIVIDE AND SOUTHERN FOOTHILLS...

CITY           SKY/WX    TMP DP  RH WIND       PRES   REMARKS
COLO. SPRINGS  PTSUNNY   79  45  29 S7        30.21F
A. F. ACADEMY  FAIR      78  37  22 SE8       30.21F
SCHRIEVER AFB  FAIR      73  41  31 N16G26    30.22S
CHEYENNE MTN   FAIR      71  49  46 S7        30.21S
ELLICOTT       FAIR     N/A N/A N/A SW6       30.19F THUNDER
FALCON         NOT AVBL
FORT CARSON    FAIR      78  45  30 CALM      30.17S
LIMON          PTSUNNY   82  46  28 SE5       30.13F
MONUMENT HILL  FAIR      70  41  35 N7        30.29F
CANON CITY     SUNNY     90  37  15 S3G17     30.11F
WALSENBURG     FAIR      90  28  11 W16G24    30.17F
TRINIDAD       FAIR      80  49  33 SE8       30.18F
$$

COZ042>045-048>051-090-091-172200-
...NORTHEAST COLORADO...

CITY           SKY/WX    TMP DP  RH WIND       PRES   REMARKS
GREELEY ARPT   FAIR      86  43  22 SW22      30.08S
AKRON          FAIR      86  37  17 W12       30.08S
BURLINGTON     FAIR      82  58  43 S8        30.08F
WRAY           NOT AVBL
YUMA           FAIR      86  18   8 NW6       30.03S
STERLING       PTSUNNY   86  46  25 W3        30.02S
HOLYOKE        FAIR      86  59  39 S7        30.01F
FORT MORGAN    NOT AVBL
$$

COZ086-089-092>099-172200-
...SOUTHEAST COLORADO...

CITY           SKY/WX    TMP DP  RH WIND       PRES   REMARKS
PUEBLO         FAIR      91  43  18 S12       30.07F
LA JUNTA       FAIR      88  50  27 VRB3      30.07F
LAMAR          FAIR      90  54  29 SW9G17    30.03F
SPRINGFIELD      N/A     83  63  50 S12G24    30.11F
$$




USA.gov is the U.S. government's official web portal to all federal, state and local government web resources and services.